COSMOS 2251 DEB, 40808

Orbit data source: Space-Track

COSMOS 2251 DEB, 40808 is space debris in LEO originally from a launch on Wed, 16 Jun 1993 UTC launched from the Plesetsk Missile And Space Complex (PKMTR). The debris from Iridium 33, an American commercial communications satellite, has been tracked extensively since its accidental collision with the defunct Russian satellite Cosmos 2251 in 2009. This event, occurring at high speed in low Earth orbit (LEO), generated thousands of pieces of space debris, significantly increasing the risk of further collisions. The Iridium 33 debris cloud has impacted space traffic management and orbital debris mitigation strategies, making it a subject of ongoing study in space situational awareness.

Loading next visibility...
Identifier
40808, 1993-036BWM
Orbit
LEO
Country
Flag of CISCIS
Related business
Manufacturer
Unknown
Mission
Spacecraft
Bus & Motor
Unknown
Mass
Unknown
Launch date (UTC)
1993-06-16 (32 years ago)
Launch vehicle
Unknown
Launch site
Plesetsk Missile And Space Complex (PKMTR)
Object type
Payload
Rocket body
Debris
Shape & HBR
Unknown shape, 0.1 m
Radar Cross Section
Small (<0.1 m²)

Expand to show TLE details & history
Last TLE update: 1 day ago

TLE from 1 day ago
0 COSMOS 2251 DEB
1 40808U 93036BWM 25310.72480003  .00013360  00000-0  24035-2 0  9995
2 40808  74.0435 214.9414 0012011 257.7490 132.4731 14.66601678630914
Epoch: 2025-11-06T17:23Z
TLE epoch observation values (Epoch: 2025-11-06T17:23:42.722Z)
Latitude
29.09547°
Longitude
-83.05991°
Altitude
680.986 km
Speed
7.516 km/s
True Right ascension
14h 56m 11s
True Declination
28° 56' 53"
Sunlit
Object was in daylight at epoch
Visualization orbit readout
Latitude
Unknown
Longitude
Unknown
Altitude
Unknown
Speed
Unknown
Apparent Right ascension
Unknown
Apparent Declination
Unknown
Sunlit
N/A
Visualization observer readout
Local Sidereal Time
17:42:49
Azimuth
Unknown
Elevation
Unknown
Doppler factor
Unknown
Orbital elements
Apogee altitude
677.992 km
Perigee altitude
661.062 km
Semi-major axis
7,047.664 km
Eccentricity
0.0012
Inclination
74.0435°
RAAN
214.9414°
Arg. of periapsis
257.749°
True anomaly
132.57452°
Mean anomaly
132.4731°
Eccentric anomaly
132.52382°
Mean motion
3.66839 °/min
Orbital period
98.14 mins
BSTAR
0.0024035

Documentation

Showing up to 5 results
|